Weather History for Boscobel, WI

Change the Weather History Date:

Monday, September 16, 2013

  Actual Average (KPDC) Record (KPDC)
Temperature  
Mean Temperature 56 °F -  
Max Temperature 69 °F 72 °F 95 °F (1955)
Min Temperature 44 °F 50 °F 35 °F (1966)
Degree Days  
Heating Degree Days 8    
Growing Degree Days 6 (Base 50)    
Moisture  
Dew Point 45 °F    
Average Humidity 74    
Maximum Humidity 96    
Minimum Humidity 36    
Precipitation  
Precipitation 0.01 in - - ()
Sea Level Pressure  
Sea Level Pressure 30.35 in    
Wind  
Wind Speed 4 mph (NE)    
Max Wind Speed 10 mph    
Max Gust Speed -    
Visibility 8 miles    
Events Rain    
Averages and records for this station are not official NWS values.
T = Trace of Precipitation, MM = Missing Value Source: NWS Daily Summary

Daily Weather History Graph

Daily Weather History Graph

Search for Another Location

Airport:

Trip Planner

Search our weather history database for the weather conditions in past years. The results will help you decide how hot, cold, wet, or windy it might be!

Date:

Astronomy

Sep. 16, 2013 Rise Set
Actual Time 6:43 AM CDT 7:10 PM CDT
Civil Twilight 6:15 AM CDT 7:38 PM CDT
Nautical Twilight 5:41 AM CDT 8:12 PM CDT
Astronomical Twilight 5:06 AM CDT 8:47 PM CDT
Moon 5:22 PM CDT (9/16) 3:25 AM CDT (9/16)
Length of Visible Light 13h 23m
Length of Day
12h 26m
Waxing Gibbous, 90% of the Moon is Illuminated
Sep 16
Waxing Gibbous
Sep 19
Full
Sep 26
Last Quarter
Oct 4
New
Oct 11
First Quarter

Hourly Weather History & Observations

Time (CDT) Temp. Windchill Dew Point Humidity Pressure Visibility Wind Dir Wind Speed Gust Speed Precip Events Conditions
12:53 AM 59.0 °F - 54.0 °F 83% 30.27 in 10.0 mi Calm Calm - N/A   Overcast
1:53 AM 57.9 °F - 52.0 °F 81% 30.30 in 10.0 mi NE 4.6 mph - N/A   Overcast
2:53 AM 57.0 °F - 51.1 °F 81% 30.30 in 10.0 mi ENE 4.6 mph - N/A   Overcast
3:53 AM 54.0 °F - 52.0 °F 93% 30.32 in 3.0 mi Variable 5.8 mph - 0.00 in Rain Light Rain
3:59 AM 54.0 °F - 52.0 °F 93% 30.32 in 2.5 mi NE 4.6 mph - 0.00 in Rain Light Rain
4:07 AM 54.0 °F - 52.0 °F 93% 30.32 in 5.0 mi NE 4.6 mph - 0.00 in   Overcast
4:18 AM 54.0 °F - 52.0 °F 93% 30.32 in 9.0 mi Variable 4.6 mph - 0.01 in   Overcast
4:53 AM 54.0 °F - 51.1 °F 90% 30.33 in 9.0 mi NE 5.8 mph - 0.01 in   Overcast
5:53 AM 53.1 °F - 48.9 °F 86% 30.36 in 10.0 mi ENE 5.8 mph - N/A   Overcast
6:53 AM 51.1 °F - 46.9 °F 86% 30.38 in 10.0 mi ENE 6.9 mph - N/A   Overcast
7:53 AM 50.0 °F - 44.1 °F 80% 30.40 in 10.0 mi ENE 10.4 mph - N/A   Overcast
8:19 AM 50.0 °F - 43.0 °F 77% 30.40 in 10.0 mi East 9.2 mph - N/A   Overcast
8:53 AM 51.1 °F - 43.0 °F 74% 30.42 in 10.0 mi NE 6.9 mph - N/A   Overcast
9:20 AM 54.0 °F - 39.9 °F 59% 30.41 in 10.0 mi East 8.1 mph - N/A   Scattered Clouds
9:53 AM 54.0 °F - 39.9 °F 59% 30.43 in 10.0 mi East 9.2 mph - N/A   Clear
10:53 AM 57.9 °F - 39.0 °F 49% 30.42 in 10.0 mi NE 8.1 mph - N/A   Clear
11:53 AM 60.1 °F - 39.9 °F 47% 30.41 in 10.0 mi Variable 6.9 mph - N/A   Clear
12:53 PM 63.0 °F - 39.9 °F 43% 30.40 in 10.0 mi NE 6.9 mph - N/A   Clear
1:53 PM 66.0 °F - 41.0 °F 40% 30.38 in 10.0 mi Variable 4.6 mph - N/A   Clear
2:53 PM 68.0 °F - 41.0 °F 37% 30.36 in 10.0 mi Variable 4.6 mph - N/A   Clear
3:53 PM 69.1 °F - 41.0 °F 36% 30.35 in 10.0 mi NNE 5.8 mph - N/A   Clear
4:53 PM 69.1 °F - 41.0 °F 36% 30.33 in 10.0 mi Variable 4.6 mph - N/A   Clear
5:53 PM 66.9 °F - 42.1 °F 40% 30.32 in 10.0 mi Variable 5.8 mph - N/A   Clear
6:53 PM 62.1 °F - 45.0 °F 53% 30.32 in 10.0 mi East 3.5 mph - N/A   Clear
7:53 PM 53.1 °F - 46.9 °F 80% 30.32 in 10.0 mi NE 3.5 mph - N/A   Clear
8:53 PM 51.1 °F - 46.9 °F 86% 30.33 in 10.0 mi Calm Calm - N/A   Clear
9:53 PM 46.9 °F - 45.0 °F 93% 30.34 in 10.0 mi Calm Calm - N/A   Clear
10:53 PM 44.1 °F - 42.1 °F 93% 30.34 in 4.0 mi Calm Calm - N/A   Clear
11:21 PM 44.1 °F - 43.0 °F 96% 30.33 in 1.0 mi Calm Calm - N/A   Clear
11:28 PM 45.0 °F - 43.0 °F 93% 30.33 in 0.8 mi Calm Calm - N/A   Clear
11:30 PM 46.0 °F - 44.1 °F 93% 30.33 in 1.2 mi Calm Calm - N/A   Clear
11:35 PM 46.9 °F - 44.1 °F 90% 30.33 in 4.0 mi Calm Calm - N/A   Clear
11:53 PM 46.0 °F 44.8 °F 44.1 °F 93% 30.35 in 7.0 mi NNE 3.5 mph - N/A   Clear